Flag for U.S.A. Weather past 2 weeks in Alexandria, Virginia, U.S.A.

Now
46 °F

Light rain. Fog.


Feels Like: 44 °F
Forecast: 38 / 45 °F
Wind: 5 mph from Northeast

Location: Reagan National Airport

Current Time: Mar 4, 2015 at 6:30:47 PM

Latest Report: Mar 4, 2015 at 4:52 PM


Visibility: 5 mi

Pressure: 29.89 "Hg

Humidity: 86%

Dew point: 42 °F

Location of AlexandriaLocation

Historic Weather in Alexandria — Graph

°F

Alexandria temperature yesterday

Maximum temperature yesterday: 41 °F (at 11:52 PM)
Minimum temperature yesterday: 31 °F (at 3:52 AM)
Average temperature yesterday: 34 °F

Past Weeks' High & Low Weather Summary

 TemperatureHumidityPressure
High51 °F (Mar 4, 3:52 PM)88% (Feb 22, 3:52 AM)30.88 "Hg (Feb 22, 3:52 AM)
Low6 °F (Feb 20, 5:52 AM)23% (Feb 20, 4:52 PM)29.73 "Hg (Feb 18, 4:52 PM)
Average29 °F55%30.23 "Hg
* Reported Feb 17 4:52 PM — Mar 4 4:52 PM, Alexandria, Weather by CustomWeather, © 2015

Note: Actual official high and low records may vary slightly from our data, if they occured in-between our weather recording intervals... More about our weather records

Advertising

Alexandria weather history for previous 24 hours

 ConditionsComfort  
Time TempWeatherWind HumidityBarometerVisibility
4:52 PM
Wed, Mar 4
46 °FLight rain. Fog.5 mph86%29.89 "Hg5 mi
3:52 PM51 °FLow clouds.No wind80%29.89 "Hg5 mi
2:52 PM48 °FLight rain. Mostly cloudy.7 mph83%29.88 "Hg4 mi
1:52 PM48 °FMostly cloudy.6 mph83%29.88 "Hg6 mi
12:52 PM46 °FLow clouds.7 mph83%29.89 "Hg5 mi
11:52 AM45 °FLow clouds.8 mph82%29.93 "Hg4 mi
10:52 AM45 °FOvercast.3 mph82%29.93 "Hg6 mi
9:52 AM43 °FLight rain. Fog.9 mph82%29.94 "Hg4 mi
8:52 AM44 °FLight rain. Fog.No wind82%29.96 "Hg6 mi
7:52 AM42 °FFog.3 mph85%29.91 "Hg5 mi
6:52 AM40 °FLight rain. Fog.3 mph86%29.89 "Hg6 mi
5:52 AM39 °FFog.8 mph86%29.87 "Hg6 mi
4:52 AM40 °FLight rain. Overcast.7 mph86%29.85 "Hg7 mi
3:52 AM42 °FLight rain. Overcast.5 mph73%29.86 "Hg6 mi
2:52 AM42 °FMostly cloudy.3 mph76%29.86 "Hg10 mi
1:52 AM42 °FMostly cloudy.9 mph73%29.83 "Hg10 mi
12:52 AM41 °FMostly cloudy.12 mph76%29.84 "Hg10 mi
11:52 PM
Tue, Mar 3
41 °FOvercast.14 mph76%29.88 "Hg10 mi
10:52 PM39 °FMostly cloudy.12 mph73%29.92 "Hg10 mi
9:52 PM38 °FPartly cloudy.15 mph68%29.96 "Hg10 mi
8:52 PM37 °FOvercast.12 mph62%29.99 "Hg10 mi
7:52 PM35 °FOvercast.14 mph70%30.03 "Hg10 mi
6:52 PM34 °FLight rain. Overcast.12 mph70%30.06 "Hg10 mi
Weather by CustomWeather, © 2015

See weather overviewHow to use our weather pages